Time,TemperatureF,DewpointF,PressureIn,WindDirection,WindDirectionDegrees,WindSpeedMPH,WindSpeedGustMPH,Humidity,HourlyPrecipIn,Conditions,Clouds,dailyrainin,SolarRadiationWatts/m^2,SoftwareType,DateUTC
2013-02-09 00:32:00,-11.0,-17.0,-100.00,NE,36,0.0,0.0,72,-99.99,,,0.04,0.000000,,2013-02-09 05:32:00,
2013-02-09 01:32:00,-13.0,-20.0,-100.00,ENE,73,0.0,3.0,68,-99.99,,,0.04,0.000000,,2013-02-09 06:32:00,
2013-02-09 02:22:00,-12.0,-19.0,-100.00,ENE,68,0.0,3.0,69,-99.99,,,0.04,0.000000,,2013-02-09 07:22:00,
2013-02-09 02:32:00,-12.0,-19.0,-100.00,ENE,68,0.0,3.0,69,-99.99,,,0.04,0.000000,,2013-02-09 07:32:00,
2013-02-09 02:42:00,-12.0,-19.0,-100.00,ENE,68,0.0,3.0,69,-99.99,,,0.04,0.000000,,2013-02-09 07:42:00,
2013-02-09 02:52:00,-12.0,-19.0,-100.00,ENE,68,0.0,3.0,69,-99.99,,,0.04,0.000000,,2013-02-09 07:52:00,
2013-02-09 03:01:00,-12.0,-19.0,-100.00,ENE,68,0.0,3.0,69,-99.99,,,0.04,0.000000,,2013-02-09 08:01:00,
2013-02-09 03:03:00,-11.0,-17.0,-100.00,NNE,31,2.0,4.0,75,0.00,,,0.04,0.000000,,2013-02-09 08:03:00,
2013-02-09 03:32:00,-11.0,-17.0,-100.00,NNE,31,2.0,4.0,75,0.00,,,0.04,0.000000,,2013-02-09 08:32:00,
2013-02-09 03:42:00,-11.0,-17.0,-100.00,NNE,31,2.0,4.0,75,0.00,,,0.04,0.000000,,2013-02-09 08:42:00,
2013-02-09 03:52:00,-11.0,-17.0,-100.00,NNE,31,2.0,4.0,75,0.00,,,0.04,0.000000,,2013-02-09 08:52:00,
2013-02-09 04:32:00,-13.0,-20.0,-100.00,NNW,346,0.0,2.0,68,0.00,,,0.04,0.000000,,2013-02-09 09:32:00,
2013-02-09 04:42:00,-13.0,-20.0,-100.00,NNW,346,0.0,2.0,68,0.00,,,0.04,0.000000,,2013-02-09 09:42:00,
2013-02-09 04:52:00,-13.0,-20.0,-100.00,NNW,346,0.0,2.0,68,0.00,,,0.04,0.000000,,2013-02-09 09:52:00,
2013-02-09 05:01:00,-13.0,-20.0,-100.00,NNW,346,0.0,2.0,68,0.00,,,0.04,0.000000,,2013-02-09 10:01:00,
2013-02-09 05:32:00,-14.0,-21.0,-100.00,ENE,72,0.0,0.0,69,0.00,,,0.04,0.000000,,2013-02-09 10:32:00,
2013-02-09 05:42:00,-14.0,-21.0,-100.00,ENE,72,0.0,0.0,69,0.00,,,0.04,0.000000,,2013-02-09 10:42:00,
2013-02-09 05:52:00,-14.0,-21.0,-100.00,ENE,72,0.0,0.0,69,0.00,,,0.04,0.000000,,2013-02-09 10:52:00,
2013-02-09 06:01:00,-14.0,-21.0,-100.00,ENE,72,0.0,0.0,69,0.00,,,0.04,0.000000,,2013-02-09 11:01:00,
2013-02-09 06:32:00,-14.0,-21.0,-100.00,North,7,1.0,2.0,68,0.00,,,0.04,0.000000,,2013-02-09 11:32:00,
2013-02-09 06:42:00,-14.0,-21.0,-100.00,North,7,1.0,2.0,68,0.00,,,0.04,0.000000,,2013-02-09 11:42:00,
2013-02-09 06:52:00,-14.0,-21.0,-100.00,North,7,1.0,2.0,68,0.00,,,0.04,0.000000,,2013-02-09 11:52:00,
2013-02-09 07:02:00,-14.0,-21.0,-100.00,North,7,1.0,2.0,68,0.00,,,0.04,0.000000,,2013-02-09 12:02:00,
2013-02-09 07:32:00,-14.0,-21.0,-100.00,NE,38,0.0,0.0,68,0.00,,,0.04,0.000000,,2013-02-09 12:32:00,
2013-02-09 07:42:00,-14.0,-21.0,-100.00,NE,38,0.0,0.0,68,0.00,,,0.04,0.000000,,2013-02-09 12:42:00,
2013-02-09 07:52:00,-14.0,-21.0,-100.00,NE,38,0.0,0.0,68,0.00,,,0.04,0.000000,,2013-02-09 12:52:00,
2013-02-09 08:02:00,-14.0,-21.0,-100.00,NE,38,0.0,0.0,68,0.00,,,0.04,0.000000,,2013-02-09 13:02:00,
2013-02-09 08:32:00,-14.0,-21.0,-100.00,NNE,20,0.0,0.0,69,0.00,,,0.04,2.000000,,2013-02-09 13:32:00,
2013-02-09 08:42:00,-14.0,-21.0,-100.00,NNE,20,0.0,0.0,69,0.00,,,0.04,2.000000,,2013-02-09 13:42:00,
2013-02-09 08:52:00,-14.0,-21.0,-100.00,NNE,20,0.0,0.0,69,0.00,,,0.04,2.000000,,2013-02-09 13:52:00,
2013-02-09 09:01:00,-14.0,-21.0,-100.00,NNE,20,0.0,0.0,69,0.00,,,0.04,2.000000,,2013-02-09 14:01:00,
2013-02-09 09:22:00,-7.0,-14.0,-100.00,ESE,113,0.0,0.0,71,0.00,,,0.04,61.000000,,2013-02-09 14:22:00,
2013-02-09 09:32:00,-7.0,-14.0,-100.00,ESE,113,0.0,0.0,71,0.00,,,0.04,61.000000,,2013-02-09 14:32:00,
2013-02-09 09:42:00,-7.0,-14.0,-100.00,ESE,113,0.0,0.0,71,0.00,,,0.04,61.000000,,2013-02-09 14:42:00,
2013-02-09 09:52:00,-7.0,-14.0,-100.00,ESE,113,0.0,0.0,71,0.00,,,0.04,61.000000,,2013-02-09 14:52:00,
2013-02-09 10:02:00,-7.0,-14.0,-100.00,ESE,113,0.0,0.0,71,0.00,,,0.04,61.000000,,2013-02-09 15:02:00,
2013-02-09 10:32:00,2.0,-5.0,-100.00,WNW,283,2.0,4.0,73,0.00,,,0.04,183.000000,,2013-02-09 15:32:00,
2013-02-09 10:42:00,2.0,-5.0,-100.00,WNW,283,2.0,4.0,73,0.00,,,0.04,183.000000,,2013-02-09 15:42:00,
2013-02-09 10:52:00,2.0,-5.0,-100.00,WNW,283,2.0,4.0,73,0.00,,,0.04,183.000000,,2013-02-09 15:52:00,
2013-02-09 11:01:00,2.0,-5.0,-100.00,WNW,283,2.0,4.0,73,0.00,,,0.04,183.000000,,2013-02-09 16:01:00,
2013-02-09 11:32:00,11.0,4.0,-100.00,SSE,160,1.0,5.0,74,0.00,,,0.04,263.000000,,2013-02-09 16:32:00,
2013-02-09 11:42:00,11.0,4.0,-100.00,SSE,160,1.0,5.0,74,0.00,,,0.04,263.000000,,2013-02-09 16:42:00,
2013-02-09 11:52:00,11.0,4.0,-100.00,SSE,160,1.0,5.0,74,0.00,,,0.04,263.000000,,2013-02-09 16:52:00,
2013-02-09 12:01:00,11.0,4.0,-100.00,SSE,160,1.0,5.0,74,0.00,,,0.04,263.000000,,2013-02-09 17:01:00,
2013-02-09 12:22:00,20.0,13.0,-100.00,SSW,197,3.0,5.0,73,0.00,,,0.04,348.000000,,2013-02-09 17:22:00,
2013-02-09 12:32:00,20.0,13.0,-100.00,SSW,197,3.0,5.0,73,0.00,,,0.04,348.000000,,2013-02-09 17:32:00,
2013-02-09 12:42:00,20.0,13.0,-100.00,SSW,197,3.0,5.0,73,0.00,,,0.04,348.000000,,2013-02-09 17:42:00,
2013-02-09 12:52:00,20.0,13.0,-100.00,SSW,197,3.0,5.0,73,0.00,,,0.04,348.000000,,2013-02-09 17:52:00,
2013-02-09 13:02:00,20.0,13.0,-100.00,SSW,197,3.0,5.0,73,0.00,,,0.04,348.000000,,2013-02-09 18:02:00,
2013-02-09 13:23:00,25.0,15.0,-100.00,SW,215,6.0,9.0,66,0.01,,,0.04,416.000000,,2013-02-09 18:23:00,
2013-02-09 13:32:00,25.0,15.0,-100.00,SW,215,6.0,9.0,66,0.01,,,0.04,416.000000,,2013-02-09 18:32:00,
2013-02-09 13:42:00,25.0,15.0,-100.00,SW,215,6.0,9.0,66,0.01,,,0.04,416.000000,,2013-02-09 18:42:00,
2013-02-09 13:52:00,25.0,15.0,-100.00,SW,215,6.0,9.0,66,0.01,,,0.04,416.000000,,2013-02-09 18:52:00,
2013-02-09 14:01:00,25.0,15.0,-100.00,SW,215,6.0,9.0,66,0.01,,,0.04,416.000000,,2013-02-09 19:01:00,
2013-02-09 14:32:00,23.0,14.0,-100.00,WSW,239,8.0,16.0,68,0.00,,,0.04,285.000000,,2013-02-09 19:32:00,
2013-02-09 14:42:00,23.0,14.0,-100.00,WSW,239,8.0,16.0,68,0.00,,,0.04,285.000000,,2013-02-09 19:42:00,
2013-02-09 14:52:00,23.0,14.0,-100.00,WSW,239,8.0,16.0,68,0.00,,,0.04,285.000000,,2013-02-09 19:52:00,
2013-02-09 15:01:00,23.0,14.0,-100.00,WSW,239,8.0,16.0,68,0.00,,,0.04,285.000000,,2013-02-09 20:01:00,
2013-02-09 15:22:00,25.0,17.0,-100.00,SW,220,10.0,17.0,72,0.00,,,0.02,285.000000,,2013-02-09 20:22:00,
2013-02-09 15:32:00,25.0,17.0,-100.00,SW,220,10.0,17.0,72,0.00,,,0.02,285.000000,,2013-02-09 20:32:00,
2013-02-09 15:42:00,25.0,17.0,-100.00,SW,220,10.0,17.0,72,0.00,,,0.02,285.000000,,2013-02-09 20:42:00,
2013-02-09 15:52:00,25.0,17.0,-100.00,SW,220,10.0,17.0,72,0.00,,,0.02,285.000000,,2013-02-09 20:52:00,
2013-02-09 16:02:00,25.0,17.0,-100.00,SW,220,10.0,17.0,72,0.00,,,0.02,285.000000,,2013-02-09 21:02:00,
2013-02-09 16:32:00,26.0,19.0,-100.00,SSW,193,8.0,15.0,73,0.00,,,0.01,183.000000,,2013-02-09 21:32:00,
2013-02-09 16:42:00,26.0,19.0,-100.00,SSW,193,8.0,15.0,73,0.00,,,0.01,183.000000,,2013-02-09 21:42:00,
2013-02-09 16:52:00,26.0,19.0,-100.00,SSW,193,8.0,15.0,73,0.00,,,0.01,183.000000,,2013-02-09 21:52:00,
2013-02-09 17:01:00,26.0,19.0,-100.00,SSW,193,8.0,15.0,73,0.00,,,0.01,183.000000,,2013-02-09 22:01:00,
2013-02-09 17:32:00,25.0,18.0,-100.00,SSW,202,9.0,14.0,75,0.00,,,0.01,110.000000,,2013-02-09 22:32:00,
2013-02-09 17:42:00,25.0,18.0,-100.00,SSW,202,9.0,14.0,75,0.00,,,0.01,110.000000,,2013-02-09 22:42:00,
2013-02-09 17:52:00,25.0,18.0,-100.00,SSW,202,9.0,14.0,75,0.00,,,0.01,110.000000,,2013-02-09 22:52:00,
2013-02-09 18:01:00,25.0,18.0,-100.00,SSW,202,9.0,14.0,75,0.00,,,0.01,110.000000,,2013-02-09 23:01:00,
2013-02-09 18:32:00,24.0,18.0,-100.00,SSW,194,7.0,12.0,79,0.00,,,0.01,36.000000,,2013-02-09 23:32:00,
2013-02-09 18:42:00,24.0,18.0,-100.00,SSW,194,7.0,12.0,79,0.00,,,0.01,36.000000,,2013-02-09 23:42:00,
2013-02-09 18:52:00,24.0,18.0,-100.00,SSW,194,7.0,12.0,79,0.00,,,0.01,36.000000,,2013-02-09 23:52:00,
2013-02-09 19:02:00,24.0,18.0,-100.00,SSW,194,7.0,12.0,79,0.00,,,0.01,36.000000,,2013-02-10 00:02:00,
2013-02-09 19:32:00,24.0,19.0,-100.00,South,173,7.0,11.0,81,0.00,,,0.01,1.000000,,2013-02-10 00:32:00,
2013-02-09 19:42:00,24.0,19.0,-100.00,South,173,7.0,11.0,81,0.00,,,0.01,1.000000,,2013-02-10 00:42:00,
2013-02-09 19:52:00,24.0,19.0,-100.00,South,173,7.0,11.0,81,0.00,,,0.01,1.000000,,2013-02-10 00:52:00,
2013-02-09 20:01:00,24.0,19.0,-100.00,South,173,7.0,11.0,81,0.00,,,0.01,1.000000,,2013-02-10 01:01:00,
2013-02-09 20:32:00,24.0,19.0,-100.00,SSW,199,8.0,12.0,82,0.00,,,0.01,0.000000,,2013-02-10 01:32:00,
2013-02-09 20:42:00,24.0,19.0,-100.00,SSW,199,8.0,12.0,82,0.00,,,0.01,0.000000,,2013-02-10 01:42:00,
2013-02-09 20:52:00,24.0,19.0,-100.00,SSW,199,8.0,12.0,82,0.00,,,0.01,0.000000,,2013-02-10 01:52:00,
2013-02-09 21:01:00,24.0,19.0,-100.00,SSW,199,8.0,12.0,82,0.00,,,0.01,0.000000,,2013-02-10 02:01:00,
2013-02-09 21:32:00,25.0,21.0,-100.00,South,176,6.0,11.0,83,0.00,,,0.01,0.000000,,2013-02-10 02:32:00,
2013-02-09 21:42:00,25.0,21.0,-100.00,South,176,6.0,11.0,83,0.00,,,0.01,0.000000,,2013-02-10 02:42:00,
2013-02-09 21:52:00,25.0,21.0,-100.00,South,176,6.0,11.0,83,0.00,,,0.01,0.000000,,2013-02-10 02:52:00,
2013-02-09 22:01:00,25.0,21.0,-100.00,South,176,6.0,11.0,83,0.00,,,0.01,0.000000,,2013-02-10 03:01:00,
2013-02-09 22:22:00,25.0,21.0,-100.00,SSE,160,6.0,8.0,83,0.00,,,0.01,0.000000,,2013-02-10 03:22:00,
2013-02-09 22:32:00,25.0,21.0,-100.00,SSE,160,6.0,8.0,83,0.00,,,0.01,0.000000,,2013-02-10 03:32:00,
2013-02-09 22:42:00,25.0,21.0,-100.00,SSE,160,6.0,8.0,83,0.00,,,0.01,0.000000,,2013-02-10 03:42:00,
2013-02-09 22:52:00,25.0,21.0,-100.00,SSE,160,6.0,8.0,83,0.00,,,0.01,0.000000,,2013-02-10 03:52:00,
2013-02-09 23:01:00,25.0,21.0,-100.00,SSE,160,6.0,8.0,83,0.00,,,0.01,0.000000,,2013-02-10 04:01:00,
2013-02-09 23:22:00,25.0,21.0,-100.00,SSW,196,5.0,7.0,83,0.00,,,0.01,0.000000,,2013-02-10 04:22:00,
2013-02-09 23:32:00,25.0,21.0,-100.00,SSW,196,5.0,7.0,83,0.00,,,0.01,0.000000,,2013-02-10 04:32:00,
2013-02-09 23:42:00,25.0,21.0,-100.00,SSW,196,5.0,7.0,83,0.00,,,0.01,0.000000,,2013-02-10 04:42:00,
2013-02-09 23:52:00,25.0,21.0,-100.00,SSW,196,5.0,7.0,83,0.00,,,0.01,0.000000,,2013-02-10 04:52:00,